Retour au catalogue

CZ-3A R/B

ActifGTO
NORAD 38050·ROCKET BODY·🇨🇳 China

Lancé Jan 13, 2012 depuis Xichang Satellite Launch Center

Loading…

TLE

VieillissantSource: Space-Track

Époque: Sep 14, 2026, 05:46 UTC

1 38050U 12002B   26257.24093576  .00000584  00000-0  63003-3 0  9991
2 38050  24.3258 269.3612 7210239  30.7616 356.5252  2.33085589123117

Suivez CZ-3A R/B en temps réel avec AllMySat

Download on the App Store